This demonstration page uses our WeatherBlox Daily Observations layout. Learn more.

40.92945, -100.16068

Hourly Observations for October 12, 2019

Temp ( °F °C ) Dew Point ( °F °C ) Humidity (%) Winds ( mph kmh ) Pressure ( in mb ) Visibility ( mi km ) Precip ( " mm )
12:15 am 00:15 Clear 29 -1.6 21 -6.3 71 71 WSW 8 13 30.22 1023 10 16.0934 0 0
12:35 am 00:35 Clear 29 -1.7 20 -6.5 70 70 W 7 11 30.22 1024 10 16.0934 0 0
12:55 am 00:55 Clear 29 -1.7 20 -6.4 71 71 WSW 6 9 30.21 1023 10 16.0934 0 0
1:15 am 01:15 Clear 27 -2.6 20 -6.5 75 75 WSW 7 11 30.21 1023 10 16.0934 0 0
1:35 am 01:35 Clear 29 -1.9 20 -6.4 72 72 W 8 13 30.21 1023 10 16.0934 0 0
1:50 am 01:50 Clear 30 -1.1 20 -6.7 66 66 W 8 13 30.2 1023 10 16.0934 0 0
2:15 am 02:15 Clear 29 -1.4 20 -6.7 68 68 WSW 7 11 30.19 1022 10 16.0934 0 0
2:35 am 02:35 Clear 29 -1.6 20 -6.7 69 69 WSW 6 9 30.18 1022 10 16.0934 0 0
2:55 am 02:55 Clear 29 -1.4 19 -7.3 65 65 SW 5 7 30.17 1022 10 16.0934 0 0
3:15 am 03:15 Clear 31 -0.8 18 -7.6 60 60 WSW 6 9 30.17 1022 10 16.0934 0 0
3:35 am 03:35 Clear 28 -2.5 19 -7 72 72 WNW 5 7 30.18 1022 10 16.0934 0 0
3:55 am 03:55 Clear 27 -3 21 -6.1 79 79 Calm 30.17 1022 10 16.0934 0 0
4:15 am 04:15 Clear 29 -1.4 19 -7.1 66 66 W 3 6 30.15 1021 10 16.0934 0 0
4:35 am 04:35 Clear 26 -3.2 21 -6.2 80 80 NW 5 7 30.17 1022 10 16.0934 0 0
4:55 am 04:55 Clear 26 -3.6 21 -6 84 84 WNW 6 9 30.17 1022 10 16.0934 0 0
5:15 am 05:15 Clear 25 -4 21 -6 86 86 NNW 7 11 30.18 1022 10 16.0934 0 0
5:35 am 05:35 Clear 24 -4.5 21 -6.1 89 89 NW 5 7 30.18 1022 10 16.0934 0 0
5:55 am 05:55 Clear 24 -4.5 21 -6.2 88 88 NW 6 9 30.18 1022 10 16.0934 0 0
6:15 am 06:15 Clear 24 -4.7 21 -6.3 89 89 NW 5 7 30.17 1022 10 16.0934 0 0
6:35 am 06:35 Clear 23 -5 20 -6.5 89 89 NW 6 9 30.18 1022 10 16.0934 0 0
6:55 am 06:55 Clear 23 -4.8 21 -6.3 89 89 N 8 13 30.18 1022 10 16.0934 0 0
7:15 am 07:15 Clear 23 -4.8 21 -6.3 89 89 Calm 30.18 1022 10 16.0934 0 0
7:35 am 07:35 Clear 23 -5.1 21 -6.3 91 91 Calm 30.18 1022 10 16.0934 0 0
7:55 am 07:55 Sunny 22 -5.4 20 -6.6 91 91 W 5 7 30.18 1022 10 16.0934 0 0
8:15 am 08:15 Sunny 24 -4.7 21 -6 91 91 WNW 5 7 30.18 1022 10 16.0934 0 0
8:35 am 08:35 Sunny 25 -3.8 22 -5.4 89 89 WNW 5 7 30.18 1022 10 16.0934 0 0
8:55 am 08:55 Sunny 28 -2.5 23 -4.9 84 84 NW 6 9 30.16 1021 10 16.0934 0 0
9:15 am 09:15 Sunny 31 -0.6 24 -4.4 76 76 W 7 11 30.13 1020 10 16.0934 0 0
9:35 am 09:35 Sunny 33 0.6 25 -4 72 72 W 9 15 30.11 1020 10 16.0934 0 0
9:55 am 09:55 Sunny 38 3.6 25 -3.7 59 59 WNW 9 15 30.08 1019 10 16.0934 0 0
10:15 am 10:15 Sunny 42 5.3 25 -3.9 52 52 WNW 15 24 30.07 1018 10 16.0934 0 0
10:35 am 10:35 Sunny 42 5.5 25 -3.7 52 52 WNW 16 26 30.06 1018 10 16.0934 0 0
10:55 am 10:55 Sunny 45 7.2 26 -3.2 48 48 WNW 15 24 30.04 1017 10 16.0934 0 0
11:15 am 11:15 Sunny 48 9 26 -3.6 41 41 WNW 18 30 30.01 1016 10 16.0934 0 0
11:35 am 11:35 Sunny 51 10.6 24 -4.3 35 35 WNW 17 28 29.99 1015 10 16.0934 0 0
11:55 am 11:55 Sunny 53 11.6 23 -4.9 31 31 W 24 39 29.98 1015 10 16.0934 0 0
12:15 pm 12:15 Sunny 53 11.8 23 -4.8 31 31 NW 20 31 29.97 1015 10 16.0934 0 0
12:35 pm 12:35 Sunny 55 12.5 24 -4.3 31 31 WNW 20 31 29.97 1015 10 16.0934 0 0
12:55 pm 12:55 Sunny 55 12.6 23 -5.1 29 29 WNW 18 30 29.95 1014 10 16.0934 0 0
1:15 pm 13:15 Sunny 56 13.4 23 -5 28 28 WNW 21 33 29.94 1014 10 16.0934 0 0
1:35 pm 13:35 Sunny 57 14.1 24 -4.4 28 28 W 20 31 29.92 1013 10 16.0934 0 0
1:55 pm 13:55 Sunny 57 13.9 23 -4.8 27 27 WNW 21 33 29.92 1013 10 16.0934 0 0
2:15 pm 14:15 Sunny 59 15 23 -4.9 25 25 WNW 16 26 29.9 1012 10 16.0934 0 0
2:35 pm 14:35 Sunny 60 15.4 22 -5.3 24 24 NW 18 30 29.87 1012 10 16.0934 0 0
2:55 pm 14:55 Sunny 60 15.4 22 -5.5 23 23 NW 24 39 29.87 1012 10 16.0934 0 0
3:15 pm 15:15 Sunny 60 15.8 22 -5.3 23 23 WNW 24 39 29.86 1011 10 16.0934 0 0
3:35 pm 15:35 Sunny 60 15.7 22 -5.5 23 23 WNW 23 37 29.86 1011 10 16.0934 0 0
3:55 pm 15:55 Sunny 60 15.8 23 -5.1 23 23 NW 26 43 29.85 1011 10 16.0934 0 0
4:15 pm 16:15 Sunny 61 16 23 -4.9 24 24 WNW 20 31 29.85 1011 10 16.0934 0 0
4:35 pm 16:35 Sunny 61 16.1 23 -5 23 23 WNW 22 35 29.84 1010 10 16.0934 0 0
4:55 pm 16:55 Sunny 60 15.8 23 -5.1 23 23 WNW 21 33 29.84 1010 10 16.0934 0 0
5:15 pm 17:15 Sunny 60 15.8 23 -4.8 24 24 NW 20 31 29.84 1010 10 16.0934 0 0
5:35 pm 17:35 Sunny 60 15.6 23 -4.8 24 24 NW 17 28 29.84 1011 10 16.0934 0 0
5:55 pm 17:55 Sunny 60 15.3 24 -4.4 26 26 NW 12 19 29.84 1011 10 16.0934 0 0
6:15 pm 18:15 Sunny 58 14.6 24 -4.4 27 27 NW 13 20 29.86 1011 10 16.0934 0 0
6:35 pm 18:35 Sunny 56 13.5 24 -4.3 29 29 NNW 8 13 29.87 1011 10 16.0934 0 0
6:55 pm 18:55 Sunny 53 11.7 25 -3.9 34 34 NNW 8 13 29.9 1012 10 16.0934 0 0
7:15 pm 19:15 Clear 49 9.5 25 -3.7 40 40 NNW 8 13 29.92 1013 10 16.0934 0 0
7:35 pm 19:35 Clear 46 7.6 25 -3.8 45 45 NNW 7 11 29.93 1014 10 16.0934 0 0
7:55 pm 19:55 Clear 44 6.6 26 -3.6 48 48 NNW 8 13 29.95 1014 10 16.0934 0 0
8:15 pm 20:15 Clear 42 5.6 26 -3.4 53 53 NNW 7 11 29.96 1015 10 16.0934 0 0
8:35 pm 20:35 Clear 38 3.6 26 -3.6 60 60 WSW 3 6 29.98 1015 10 16.0934 0 0
8:55 pm 20:55 Clear 38 3.5 27 -3 63 63 Calm 29.98 1015 10 16.0934 0 0
9:15 pm 21:15 Clear 36 2 26 -3.1 69 69 WSW 6 9 30 1016 10 16.0934 0 0
9:35 pm 21:35 Clear 35 1.8 27 -3 71 71 WSW 5 7 30 1016 10 16.0934 0 0
9:55 pm 21:55 Clear 36 2.1 27 -2.7 71 71 W 5 7 30 1016 10 16.0934 0 0
10:15 pm 22:15 Clear 35 1.6 27 -2.8 73 73 NW 5 7 30 1016 10 16.0934 0 0
10:35 pm 22:35 Clear 34 1.2 27 -2.8 75 75 NW 6 9 30 1016 10 16.0934 0 0
10:55 pm 22:55 Clear 33 0.4 27 -3 78 78 WNW 6 9 30.01 1016 10 16.0934 0 0
11:15 pm 23:15 Clear 33 0.4 27 -2.7 80 80 Calm 30.01 1016 10 16.0934 0 0
11:35 pm 23:35 Clear 33 0.7 27 -3 77 77 Calm 30.01 1016 10 16.0934 0 0
11:55 pm 23:55 Clear 33 0.4 26 -3.1 78 78 W 3 6 30.01 1016 10 16.0934 0 0

Powered by AerisWeather